Weather reports worldwide

Advertisment
Shoreham Airport, United Kingdom (3876): temperature & dewpoint: 18.06.2017 04:00:00 - 24.06.2017 04:00:00 (BST)Shoreham Airport, United Kingdom (3876): temperature 5cm: 18.06.2017 04:00:00 - 24.06.2017 04:00:00 (BST)Shoreham Airport, United Kingdom (3876): wind speed & gusts: 18.06.2017 04:00:00 - 24.06.2017 04:00:00 (BST)Shoreham Airport, United Kingdom (3876): wind direction: 18.06.2017 04:00:00 - 24.06.2017 04:00:00 (BST)Shoreham Airport, United Kingdom (3876): reduced air pressure: 18.06.2017 04:00:00 - 24.06.2017 04:00:00 (BST)Shoreham Airport, United Kingdom (3876): visibility: 18.06.2017 04:00:00 - 24.06.2017 04:00:00 (BST)Shoreham Airport, United Kingdom (3876): precipitation: 18.06.2017 04:00:00 - 24.06.2017 04:00:00 (BST)
Date & Time tt [°C] td [°C] tt 5cm [°C] ff [km/h] ff [kn] fx [km/h] fx [kn] dd ppp [hPa] vv [km] rr [mm]
24.06.2017 04:00:00 - - - - - - - - - - -
24.06.2017 03:00:00 16,7 14,1 - 31 17 - - WSW 1016,4 - 0,0
24.06.2017 02:00:00 16,5 14,1 - 28 15 48 26 WSW 1016,7 - 0,0
24.06.2017 01:00:00 16,6 14,3 - 26 14 52 28 WSW 1017,1 - 0,0
24.06.2017 00:00:00 16,8 14,3 - 35 19 50 27 WSW 1017,0 - 0,0
23.06.2017 23:00:00 16,8 13,8 - 34 18 46 25 WSW 1017,6 - 0,0
23.06.2017 22:00:00 17,4 14,6 - 29 16 50 27 W 1017,9 - 0,0
23.06.2017 21:00:00 17,6 14,4 - 35 19 48 26 WSW 1017,8 - 0,0
23.06.2017 20:00:00 17,6 14,8 - 31 17 50 27 WSW 1017,9 10 0,0
23.06.2017 19:00:00 18,1 14,4 - 29 16 52 28 WSW 1018,0 10 0,0
23.06.2017 18:00:00 19,3 14,8 - 34 18 54 29 WSW 1018,1 10 0,0
23.06.2017 17:00:00 18,9 14,5 - 37 20 57 31 WSW 1018,1 10 0,0
23.06.2017 16:00:00 18,8 14,3 - 35 19 63 34 WSW 1017,8 10 0,0
23.06.2017 15:00:00 19,2 13,8 - 41 22 59 32 SW 1018,0 10 0,0
23.06.2017 14:00:00 19,7 14,2 - 37 20 52 28 SW 1018,0 10 0,0
23.06.2017 13:00:00 20,0 14,7 - 35 19 50 27 WSW 1017,8 10 0,0
23.06.2017 12:00:00 19,1 12,2 - 35 19 46 25 WSW 1018,1 10 0,0
23.06.2017 11:00:00 18,3 11,4 - 26 14 - - W 1018,1 10 0,0
23.06.2017 10:00:00 17,3 11,6 - 24 13 - - W 1018,0 10 0,0
23.06.2017 09:00:00 16,3 11,1 - 21 11 - - W 1017,7 - 0,0
23.06.2017 08:00:00 16,0 11,6 - 18 10 - - W 1017,3 - 0,0
23.06.2017 07:00:00 14,6 11,3 - 18 10 - - W 1016,8 - 0,0
23.06.2017 06:00:00 13,6 12,0 - 5 3 - - NW 1016,7 - 0,0
23.06.2017 05:00:00 13,4 12,2 - 4 2 - - NW 1016,4 - 0,0
23.06.2017 04:00:00 11,8 10,2 - 4 2 - - WNW 1016,2 - 0,0
23.06.2017 03:00:00 13,1 11,2 - 5 3 - - N 1015,8 - 0,0
23.06.2017 02:00:00 14,0 11,9 - 9 5 - - NNW 1015,8 - 0,0
23.06.2017 01:00:00 14,2 11,0 - 4 2 - - NW 1015,4 - 0,0
23.06.2017 00:00:00 16,2 12,4 - 9 5 - - WNW 1015,3 - 0,0
22.06.2017 23:00:00 17,1 13,4 - 15 8 - - W 1015,1 - 0,0
22.06.2017 22:00:00 16,1 12,7 - 11 6 - - W 1014,7 0,3 0,0
22.06.2017 21:00:00 18,4 15,1 - 15 8 - - W 1014,0 - 0,0
22.06.2017 20:00:00 19,5 15,7 - 24 13 - - WSW 1013,8 10 0,0
22.06.2017 19:00:00 20,2 15,6 - 26 14 - - WSW 1013,7 10 0,0
22.06.2017 18:00:00 20,6 15,5 - 29 16 - - WSW 1013,5 10 0,0
22.06.2017 17:00:00 20,4 16,0 - 29 16 50 27 WSW 1013,3 10 0,0
22.06.2017 16:00:00 21,9 15,3 - 28 15 54 29 WSW 1012,7 10 0,0
22.06.2017 15:00:00 22,0 16,7 - 31 17 50 27 WSW 1012,4 10 0,0
22.06.2017 14:00:00 21,6 16,5 - 35 19 52 28 SW 1012,4 10 0,0
22.06.2017 13:00:00 20,3 16,3 - 37 20 55 30 SW 1012,4 10 0,0
22.06.2017 12:00:00 19,9 17,7 - 31 17 - - WSW 1012,4 4,5 0,0
22.06.2017 11:00:00 17,9 16,5 - 22 12 - - WSW 1012,5 4,0 0,6
22.06.2017 10:00:00 18,1 16,4 - 22 12 - - WSW 1012,2 5 0,0
22.06.2017 09:00:00 18,2 16,6 - 18 10 - - W 1012,3 6 0,0
22.06.2017 08:00:00 17,4 16,3 - 15 8 - - WSW 1012,3 4,5 0,0
22.06.2017 07:00:00 17,2 16,2 - 18 10 - - WSW 1011,9 - 0,0
22.06.2017 06:00:00 16,9 16,0 - 9 5 - - WSW 1011,9 - 0,0
22.06.2017 05:00:00 17,0 16,4 - 13 7 - - SW 1011,7 - 0,0
22.06.2017 04:00:00 17,1 16,3 - 13 7 - - SW 1011,8 - 0,0
22.06.2017 03:00:00 16,1 15,3 - 2 1 - - SE 1011,9 - 0,0
22.06.2017 02:00:00 15,7 14,2 - 9 5 - - SW 1012,5 - 0,0
22.06.2017 01:00:00 17,8 16,7 - 8 4 - - WSW 1012,6 - 0,0
22.06.2017 00:00:00 18,1 16,8 - 9 5 - - SSW 1012,8 - 0,0
21.06.2017 23:00:00 18,7 17,4 - 8 4 - - SSE 1012,8 - 0,0
21.06.2017 22:00:00 19,3 17,6 - 8 4 - - S 1012,8 0,3 0,0
21.06.2017 21:00:00 20,1 17,5 - 8 4 - - S 1012,5 - 0,0
21.06.2017 20:00:00 21,3 17,1 - 9 5 - - SSW 1012,7 7 0,0
21.06.2017 19:00:00 22,3 17,2 - 11 6 - - S 1012,8 7 0,0
21.06.2017 18:00:00 24,8 18,1 - 11 6 - - SSE 1012,7 8 0,0
21.06.2017 17:00:00 25,7 18,1 - 15 8 - - SSE 1013,0 9 0,0
21.06.2017 16:00:00 27,5 19,1 - 15 8 - - SE 1013,1 10 0,0
21.06.2017 15:00:00 27,1 18,1 - 16 9 - - SE 1013,5 10 0,0
21.06.2017 14:00:00 27,4 18,5 - 21 11 - - ESE 1013,8 10 0,0
21.06.2017 13:00:00 26,5 18,9 - 18 10 - - ESE 1014,1 15 0,0
21.06.2017 12:00:00 25,6 18,9 - 18 10 - - ESE 1014,4 10 0,0
21.06.2017 11:00:00 26,3 18,9 - 13 7 - - ESE 1014,5 10 0,0
21.06.2017 10:00:00 26,2 18,6 26,5 11 6 - - ESE 1014,9 9 0,0
21.06.2017 09:00:00 24,8 18,4 - 9 5 - - ENE 1015,1 9 0,0
21.06.2017 08:00:00 20,1 17,8 - 16 9 - - N 1015,2 9 0,0
21.06.2017 07:00:00 18,1 16,7 - 16 9 - - N 1015,1 - 0,0
21.06.2017 06:00:00 17,4 16,2 - 13 7 - - NNE 1015,0 - 0,0
21.06.2017 05:00:00 17,1 15,8 - 18 10 - - N 1015,3 - 0,0
21.06.2017 04:00:00 17,4 15,8 - 16 9 - - N 1015,5 - 0,0
21.06.2017 03:00:00 17,5 15,9 - 16 9 - - N 1016,0 - 0,0
21.06.2017 02:00:00 17,8 15,8 - 16 9 - - N 1016,5 - 0,0
21.06.2017 01:00:00 18,1 15,6 - 13 7 - - N 1016,9 - 0,0
21.06.2017 00:00:00 19,0 14,9 - 9 5 - - N 1016,9 - 0,0
20.06.2017 23:00:00 19,9 15,3 - 8 4 - - N 1016,9 - 0,0
20.06.2017 22:00:00 21,2 17,0 - 13 7 - - NNE 1016,9 - 0,0
20.06.2017 21:00:00 23,4 17,5 - 15 8 - - ENE 1016,5 - 0,0
20.06.2017 20:00:00 23,0 18,2 - 9 5 - - ESE 1016,2 10 0,0
20.06.2017 19:00:00 23,4 17,5 - 15 8 - - ESE 1016,1 10 0,0
20.06.2017 18:00:00 24,8 18,2 - 16 9 - - ESE 1016,2 10 0,0
20.06.2017 17:00:00 25,3 17,5 - 13 7 - - SE 1016,5 10 0,0
20.06.2017 16:00:00 26,6 17,9 - 16 9 - - ESE 1016,8 10 0,0
20.06.2017 15:00:00 26,3 18,4 - 13 7 - - SE 1017,2 10 0,0
20.06.2017 14:00:00 24,9 18,4 - 8 4 - - SSE 1017,5 8 0,0
20.06.2017 13:00:00 25,2 18,8 - 11 6 - - SE 1017,3 10 0,0
20.06.2017 12:00:00 26,2 18,5 - 11 6 - - SSE 1017,4 10 0,0
20.06.2017 11:00:00 26,7 16,8 - 9 5 - - SE 1017,5 10 0,0
20.06.2017 10:00:00 24,7 18,9 24,9 9 5 - - N 1017,4 10 0,0
20.06.2017 09:00:00 21,2 17,0 - 11 6 - - N 1017,4 10 0,0
20.06.2017 08:00:00 19,4 16,8 - 16 9 - - N 1017,3 10 0,0
20.06.2017 07:00:00 17,7 16,7 - 18 10 - - N 1017,2 - 0,0
20.06.2017 06:00:00 16,4 15,7 - 16 9 - - N 1017,0 - 0,0
20.06.2017 05:00:00 16,0 15,0 - 11 6 - - N 1016,8 - 0,0
20.06.2017 04:00:00 15,9 14,9 - 9 5 - - N 1016,7 - 0,0
20.06.2017 03:00:00 16,0 14,6 - 8 4 - - N 1016,9 - 0,0
20.06.2017 02:00:00 16,7 15,2 - 9 5 - - N 1017,2 - 0,0
20.06.2017 01:00:00 16,7 15,1 - 9 5 - - N 1017,4 - 0,0
20.06.2017 00:00:00 16,1 13,8 - 5 3 - - N 1017,5 - 0,0
19.06.2017 23:00:00 17,9 15,3 - 5 3 - - NNE 1017,6 - 0,0
19.06.2017 22:00:00 19,4 16,5 - 5 3 - - NNE 1017,4 - 0,0
19.06.2017 21:00:00 20,0 15,9 - 4 2 - - W 1017,2 - 0,0
19.06.2017 20:00:00 22,1 16,1 - 5 3 - - S 1017,3 10 0,0
19.06.2017 19:00:00 23,5 16,0 - 11 6 - - SE 1017,2 10 0,0
19.06.2017 18:00:00 23,4 15,6 - 11 6 - - SE 1017,5 10 0,0
19.06.2017 17:00:00 24,8 16,1 - 8 4 - - SSE 1017,8 10 0,0
19.06.2017 16:00:00 24,9 16,1 - 9 5 - - SSE 1018,0 10 0,0
19.06.2017 15:00:00 25,4 17,5 - 9 5 - - SE 1018,3 10 0,0
19.06.2017 14:00:00 24,8 17,1 - 11 6 - - SE 1018,6 10 0,0
19.06.2017 13:00:00 24,8 17,5 - 11 6 - - SSE 1019,0 10 0,0
19.06.2017 12:00:00 25,7 17,5 - 9 5 - - S 1019,3 10 0,0
19.06.2017 11:00:00 26,1 17,6 - 9 5 - - SSE 1019,4 10 0,0
19.06.2017 10:00:00 25,6 16,6 26,1 8 4 - - E 1019,5 10 0,0
19.06.2017 09:00:00 23,3 19,0 - 9 5 - - N 1019,6 10 0,0
19.06.2017 08:00:00 20,5 17,7 - 13 7 - - N 1019,8 10 0,0
19.06.2017 07:00:00 17,9 16,2 - 15 8 - - N 1020,0 - 0,0
19.06.2017 06:00:00 16,6 15,4 - 15 8 - - N 1020,0 - 0,0
19.06.2017 05:00:00 15,9 14,8 - 11 6 - - N 1020,1 - 0,0
19.06.2017 04:00:00 15,8 14,7 - 9 5 - - N 1020,3 - 0,0
19.06.2017 03:00:00 16,0 14,8 - 9 5 - - NNE 1020,7 - 0,0
19.06.2017 02:00:00 17,1 15,1 - 9 5 - - N 1020,8 - 0,0
19.06.2017 01:00:00 17,8 15,3 - 8 4 - - NNE 1021,1 - 0,0
19.06.2017 00:00:00 17,5 15,4 - 8 4 - - NNE 1021,4 - 0,0
18.06.2017 23:00:00 18,0 15,6 - 5 3 - - NNE 1021,5 - 0,0
18.06.2017 22:00:00 18,9 15,5 - 4 2 - - NNW 1021,5 - 0,0
18.06.2017 21:00:00 22,4 15,2 - 2 1 - - WSW 1021,2 - 0,0
18.06.2017 20:00:00 24,0 15,4 - 5 3 - - SE 1021,4 - 0,0
18.06.2017 19:00:00 25,2 15,3 - 5 3 - - SSE 1021,6 10 0,0
18.06.2017 18:00:00 25,1 15,5 - 5 3 - - S 1022,0 10 0,0
18.06.2017 17:00:00 24,3 15,4 - 8 4 - - SSE 1022,4 10 0,0
18.06.2017 16:00:00 23,4 16,1 - 8 4 - - S 1022,8 10 0,0
18.06.2017 15:00:00 23,3 16,8 - 9 5 - - SSE 1023,2 10 0,0
18.06.2017 14:00:00 24,0 17,1 - 9 5 - - S 1023,7 10 0,0
18.06.2017 13:00:00 24,2 18,1 - 9 5 - - SSE 1024,1 10 0,0
18.06.2017 12:00:00 23,6 16,6 - 9 5 - - S 1024,5 10 0,0
18.06.2017 11:00:00 22,8 15,8 - 13 7 - - SSE 1024,8 10 0,0
18.06.2017 10:00:00 23,4 15,8 23,4 5 3 - - SSE 1024,8 10 0,0
18.06.2017 09:00:00 22,2 15,3 - 8 4 - - SE 1025,0 10 0,0
18.06.2017 08:00:00 21,8 15,2 - 4 2 - - SE 1025,1 - 0,0
18.06.2017 07:00:00 18,9 17,0 - 4 2 - - N 1025,0 - 0,0
18.06.2017 06:00:00 15,7 14,7 - 8 4 - - N 1024,9 - 0,0
18.06.2017 05:00:00 15,1 14,0 - 15 8 - - N 1024,7 - 0,0
18.06.2017 04:00:00 15,4 13,9 - 11 6 - - N 1024,6 - 0,0

tt = temperature
td = dewpoint
tt 5cm = temperature 5cm
ff = wind speed
fx = gusts
dd = wind direction
ppp = reduced air pressure
vv = visibility
rr = precipitation

Next stations